| time (UTC) | temp C | wind direction | speed KPH | gust KPH | rain 1hr cm | rain 24hr cm | rain mn cm | humidity % | barometer mb |
| 20260510054516 | 8 | 33 | 1.6 | 3.2 | 0.00 | 0.33 | 0.00 | 1 | 1009.2 |
| 20260510053516 | 9 | 33 | 1.6 | 3.2 | 0.00 | 0.33 | 0.00 | 1 | 1009.4 |
| 20260510052536 | 10 | 33 | 3.2 | 6.4 | 0.00 | 0.33 | 0.00 | 1 | 1009.3 |
| 20260510051516 | 10 | 0.0 | 0.0 | 0.00 | 0.33 | 0.00 | 1 | 1008.9 | |
| 20260510050536 | 10 | 0.0 | 0.0 | 0.00 | 0.33 | 0.00 | 1 | 1008.8 | |
| 20260510045516 | 10 | 0.0 | 0.0 | 0.00 | 0.33 | 0.00 | 1 | 1008.9 | |
| 20260510044516 | 10 | 0.0 | 0.0 | 0.00 | 0.33 | 0.00 | 1 | 1008.9 | |
| 20260510043516 | 10 | 90 | 0.0 | 4.8 | 0.00 | 0.33 | 0.00 | 1 | 1009.0 |
| 20260510042516 | 10 | 0.0 | 0.0 | 0.00 | 0.33 | 0.00 | 1 | 1009.0 | |
| 20260510041516 | 10 | 0.0 | 0.0 | 0.00 | 0.33 | 0.00 | 1 | 1009.1 | |
| 20260510040516 | 11 | 0.0 | 0.0 | 0.00 | 0.33 | 0.00 | 1 | 1009.1 | |
| 20260510035535 | 11 | 0.0 | 0.0 | 0.00 | 0.33 | 0.33 | 1 | 1009.1 | |
| 20260510034515 | 11 | 0.0 | 3.2 | 0.00 | 0.33 | 0.33 | 1 | 1008.9 | |
| 20260510033515 | 11 | 143 | 1.6 | 3.2 | 0.00 | 0.33 | 0.33 | 1 | 1008.8 |
| 20260510032515 | 11 | 0.0 | 0.0 | 0.00 | 0.33 | 0.33 | 1 | 1008.9 | |
| 20260510031515 | 10 | 0.0 | 0.0 | 0.00 | 0.33 | 0.33 | 1 | 1008.9 | |
| 20260510030515 | 10 | 0.0 | 0.0 | 0.00 | 0.33 | 0.33 | 1 | 1008.9 | |
| 20260510025515 | 10 | 0.0 | 0.0 | 0.00 | 0.33 | 0.33 | 1 | 1008.9 | |
| 20260510024515 | 10 | 0.0 | 0.0 | 0.00 | 0.33 | 0.33 | 1 | 1008.9 | |
| 20260510023515 | 10 | 0.0 | 0.0 | 0.00 | 0.33 | 0.33 | 1 | 1008.8 | |
| 20260510022515 | 10 | 0.0 | 0.0 | 0.00 | 0.33 | 0.33 | 1 | 1008.8 | |
| 20260510021515 | 10 | 0.0 | 0.0 | 0.00 | 0.33 | 0.33 | 1 | 1008.7 | |
| 20260510020515 | 10 | 0.0 | 0.0 | 0.00 | 0.33 | 0.33 | 1 | 1008.5 | |
| 20260510015515 | 10 | 0.0 | 0.0 | 0.00 | 0.33 | 0.33 | 1 | 1008.4 | |
| 20260510014515 | 11 | 0.0 | 0.0 | 0.00 | 0.33 | 0.33 | 1 | 1008.4 | |
| 20260510013515 | 11 | 0.0 | 0.0 | 0.00 | 0.33 | 0.33 | 1 | 1008.3 | |
| 20260510012515 | 11 | 0.0 | 0.0 | 0.00 | 0.33 | 0.33 | 1 | 1008.3 | |
| 20260510011515 | 11 | 0.0 | 0.0 | 0.00 | 0.33 | 0.33 | 1 | 1008.2 | |
| 20260510010515 | 11 | 0.0 | 0.0 | 0.00 | 0.33 | 0.33 | 1 | 1008.1 | |
| 20260510005515 | 11 | 0.0 | 0.0 | 0.00 | 0.33 | 0.33 | 1 | 1008.1 | |
| 20260510004515 | 11 | 0.0 | 0.0 | 0.00 | 0.33 | 0.33 | 1 | 1007.9 | |
| 20260510003515 | 12 | 0.0 | 0.0 | 0.00 | 0.33 | 0.33 | 9 | 1007.8 | |
| 20260510002535 | 12 | 0.0 | 0.0 | 0.00 | 0.33 | 0.33 | 37 | 1007.7 | |
| 20260510001515 | 13 | 0.0 | 0.0 | 0.00 | 0.33 | 0.33 | 58 | 1007.6 | |
| 20260510000515 | 14 | 0.0 | 0.0 | 0.00 | 0.33 | 0.33 | 69 | 1007.6 | |
| 20260509235515 | 14 | 179 | 0.0 | 3.2 | 0.00 | 0.33 | 0.33 | 71 | 1007.6 |
| 20260509234535 | 15 | 179 | 3.2 | 4.8 | 0.00 | 0.33 | 0.33 | 72 | 1007.5 |
| 20260509233515 | 15 | 198 | 3.2 | 4.8 | 0.00 | 0.33 | 0.33 | 71 | 1007.5 |
| 20260509232515 | 15 | 201 | 1.6 | 4.8 | 0.00 | 0.33 | 0.33 | 70 | 1007.4 |
| 20260509231515 | 15 | 202 | 3.2 | 6.4 | 0.00 | 0.33 | 0.33 | 70 | 1007.3 |
| 20260509230515 | 15 | 194 | 3.2 | 6.4 | 0.00 | 0.33 | 0.33 | 70 | 1007.4 |
| 20260509225515 | 15 | 215 | 4.8 | 6.4 | 0.00 | 0.33 | 0.33 | 70 | 1007.4 |
| 20260509224515 | 15 | 236 | 6.4 | 12.9 | 0.00 | 0.33 | 0.33 | 71 | 1007.4 |
| 20260509223515 | 15 | 235 | 9.7 | 12.9 | 0.00 | 0.33 | 0.33 | 71 | 1007.4 |
| 20260509222515 | 15 | 238 | 8.0 | 12.9 | 0.00 | 0.33 | 0.33 | 70 | 1007.3 |
| 20260509221515 | 15 | 233 | 3.2 | 6.4 | 0.00 | 0.33 | 0.33 | 65 | 1007.4 |
| 20260509220515 | 15 | 199 | 4.8 | 9.7 | 0.00 | 0.33 | 0.33 | 60 | 1007.5 |
| 20260509215535 | 15 | 213 | 4.8 | 9.7 | 0.00 | 0.33 | 0.33 | 57 | 1007.6 |
| 20260509214515 | 14 | 209 | 4.8 | 11.3 | 0.00 | 0.33 | 0.33 | 51 | 1007.7 |
| 20260509213517 | 14 | 233 | 8.0 | 12.9 | 0.00 | 0.33 | 0.33 | 49 | 1007.8 |
| 20260509212517 | 13 | 245 | 8.0 | 12.9 | 0.00 | 0.33 | 0.33 | 48 | 1007.8 |
| 20260509211517 | 13 | 249 | 6.4 | 11.3 | 0.00 | 0.33 | 0.33 | 47 | 1007.8 |
| 20260509210517 | 13 | 245 | 8.0 | 14.5 | 0.00 | 0.33 | 0.33 | 44 | 1007.7 |
| 20260509205517 | 13 | 230 | 8.0 | 11.3 | 0.00 | 0.33 | 0.33 | 30 | 1007.7 |
| 20260509204517 | 13 | 229 | 6.4 | 12.9 | 0.00 | 0.33 | 0.33 | 34 | 1008.0 |
| 20260509203517 | 13 | 242 | 8.0 | 17.7 | 0.00 | 0.33 | 0.33 | 34 | 1008.0 |
| 20260509202517 | 13 | 260 | 4.8 | 14.5 | 0.00 | 0.33 | 0.33 | 15 | 1008.1 |
| 20260509201517 | 13 | 252 | 3.2 | 11.3 | 0.00 | 0.33 | 0.33 | 11 | 1008.2 |
| 20260509200537 | 13 | 247 | 8.0 | 12.9 | 0.00 | 0.33 | 0.33 | 12 | 1008.4 |
| 20260509195517 | 13 | 241 | 8.0 | 14.5 | 0.00 | 0.33 | 0.33 | 3 | 1008.4 |
| 20260509194517 | 12 | 243 | 8.0 | 12.9 | 0.00 | 0.33 | 0.33 | 3 | 1008.4 |
| 20260509193517 | 12 | 198 | 6.4 | 11.3 | 0.00 | 0.33 | 0.33 | 1 | 1008.4 |
| 20260509192517 | 12 | 183 | 6.4 | 11.3 | 0.00 | 0.33 | 0.33 | 1 | 1008.5 |
| 20260509191517 | 12 | 199 | 4.8 | 11.3 | 0.00 | 0.33 | 0.33 | 1 | 1008.6 |
| 20260509190517 | 12 | 169 | 4.8 | 9.7 | 0.03 | 0.33 | 0.33 | 1 | 1008.7 |
| 20260509185517 | 12 | 187 | 3.2 | 6.4 | 0.03 | 0.33 | 0.33 | 1 | 1008.9 |
| 20260509184515 | 12 | 184 | 1.6 | 8.0 | 0.05 | 0.33 | 0.33 | 1 | 1009.1 |
| 20260509183517 | 11 | 190 | 6.4 | 9.7 | 0.05 | 0.33 | 0.33 | 1 | 1009.5 |
| 20260509182517 | 11 | 174 | 3.2 | 9.7 | 0.08 | 0.33 | 0.33 | 1 | 1009.4 |
| 20260509181515 | 11 | 171 | 4.8 | 9.7 | 0.08 | 0.33 | 0.33 | 1 | 1009.3 |
| 20260509180537 | 11 | 173 | 6.4 | 9.7 | 0.08 | 0.30 | 0.30 | 1 | 1009.4 |
| 20260509175537 | 11 | 177 | 4.8 | 9.7 | 0.10 | 0.30 | 0.30 | 1 | 1009.4 |
| 20260509174515 | 11 | 246 | 3.2 | 6.4 | 0.13 | 0.28 | 0.28 | 1 | 1009.1 |
| 20260509173517 | 11 | 246 | 3.2 | 6.4 | 0.15 | 0.28 | 0.28 | 1 | 1009.2 |
| 20260509172517 | 11 | 246 | 0.0 | 3.2 | 0.18 | 0.25 | 0.25 | 1 | 1009.2 |
| 20260509171517 | 11 | 246 | 1.6 | 3.2 | 0.23 | 0.25 | 0.25 | 1 | 1009.3 |
| 20260509170537 | 11 | 245 | 3.2 | 6.4 | 0.23 | 0.23 | 0.23 | 1 | 1009.3 |
| 20260509165517 | 11 | 247 | 4.8 | 8.0 | 0.20 | 0.20 | 0.20 | 1 | 1009.4 |
| 20260509164515 | 11 | 271 | 1.6 | 4.8 | 0.15 | 0.15 | 0.15 | 7 | 1009.3 |
| 20260509163517 | 11 | 230 | 4.8 | 17.7 | 0.13 | 0.13 | 0.13 | 30 | 1009.6 |
| 20260509162517 | 12 | 232 | 11.3 | 17.7 | 0.08 | 0.08 | 0.08 | 36 | 1009.9 |
| 20260509161535 | 12 | 232 | 8.0 | 16.1 | 0.03 | 0.03 | 0.03 | 40 | 1009.9 |
| 20260509160517 | 12 | 220 | 11.3 | 17.7 | 0.00 | 0.00 | 0.00 | 51 | 1010.1 |
| 20260509155517 | 12 | 227 | 8.0 | 11.3 | 0.00 | 0.00 | 0.00 | 54 | 1010.0 |
| 20260509154515 | 13 | 225 | 6.4 | 9.7 | 0.00 | 0.00 | 0.00 | 60 | 1010.0 |
| 20260509153517 | 13 | 231 | 8.0 | 12.9 | 0.00 | 0.00 | 0.00 | 64 | 1010.1 |
| 20260509152517 | 13 | 230 | 8.0 | 14.5 | 0.00 | 0.00 | 0.00 | 63 | 1010.2 |
| 20260509151515 | 13 | 234 | 8.0 | 14.5 | 0.00 | 0.00 | 0.00 | 62 | 1010.2 |
| 20260509150537 | 13 | 243 | 9.7 | 14.5 | 0.00 | 0.00 | 0.00 | 62 | 1010.2 |
| 20260509145517 | 13 | 237 | 4.8 | 16.1 | 0.00 | 0.00 | 0.00 | 62 | 1010.0 |
| 20260509144515 | 12 | 210 | 4.8 | 14.5 | 0.00 | 0.00 | 0.00 | 60 | 1010.0 |
| 20260509143537 | 13 | 184 | 3.2 | 4.8 | 0.00 | 0.00 | 0.00 | 66 | 1010.0 |
| 20260509142517 | 13 | 102 | 0.0 | 8.0 | 0.00 | 0.00 | 0.00 | 64 | 1009.5 |
| 20260509141517 | 13 | 0.0 | 0.0 | 0.00 | 0.00 | 0.00 | 60 | 1009.5 | |
| 20260509140537 | 12 | 93 | 0.0 | 6.4 | 0.00 | 0.00 | 0.00 | 57 | 1009.5 |
| 20260509135517 | 12 | 91 | 1.6 | 4.8 | 0.00 | 0.00 | 0.00 | 60 | 1009.6 |
| 20260509134517 | 12 | 93 | 1.6 | 4.8 | 0.00 | 0.00 | 0.00 | 59 | 1009.6 |
| 20260509133517 | 12 | 93 | 1.6 | 4.8 | 0.00 | 0.00 | 0.00 | 60 | 1009.6 |
| 20260509132516 | 12 | 94 | 0.0 | 1.6 | 0.00 | 0.00 | 0.00 | 64 | 1009.8 |
| 20260509131517 | 12 | 94 | 1.6 | 3.2 | 0.00 | 0.00 | 0.00 | 65 | 1009.8 |
| 20260509130537 | 11 | 95 | 3.2 | 9.7 | 0.00 | 0.00 | 0.00 | 65 | 1009.5 |
| 20260509125517 | 11 | 95 | 6.4 | 11.3 | 0.00 | 0.00 | 0.00 | 63 | 1009.4 |
| 20260509124517 | 11 | 94 | 4.8 | 12.9 | 0.00 | 0.00 | 0.00 | 59 | 1009.3 |
| 20260509123517 | 11 | 96 | 6.4 | 11.3 | 0.00 | 0.00 | 0.00 | 57 | 1009.3 |
| 20260509122517 | 11 | 93 | 4.8 | 8.0 | 0.00 | 0.00 | 0.00 | 55 | 1009.5 |
| 20260509121535 | 11 | 93 | 4.8 | 8.0 | 0.00 | 0.00 | 0.00 | 54 | 1009.5 |
| 20260509120517 | 11 | 85 | 4.8 | 8.0 | 0.00 | 0.00 | 0.00 | 55 | 1009.6 |
| 20260509115517 | 10 | 89 | 4.8 | 6.4 | 0.00 | 0.00 | 0.00 | 54 | 1009.7 |
| 20260509114517 | 10 | 104 | 3.2 | 6.4 | 0.00 | 0.00 | 0.00 | 49 | 1009.6 |
| 20260509113517 | 10 | 84 | 4.8 | 8.0 | 0.00 | 0.00 | 0.00 | 44 | 1009.4 |
| 20260509112517 | 10 | 84 | 3.2 | 4.8 | 0.00 | 0.00 | 0.00 | 48 | 1009.4 |
| 20260509111515 | 10 | 99 | 3.2 | 8.0 | 0.00 | 0.00 | 0.00 | 50 | 1009.5 |
| 20260509110537 | 10 | 96 | 3.2 | 8.0 | 0.00 | 0.00 | 0.00 | 46 | 1009.1 |
| 20260509105516 | 10 | 89 | 4.8 | 6.4 | 0.00 | 0.00 | 0.00 | 46 | 1009.2 |
| 20260509104515 | 10 | 96 | 4.8 | 9.7 | 0.00 | 0.00 | 0.00 | 42 | 1009.0 |
| 20260509103517 | 10 | 90 | 3.2 | 6.4 | 0.00 | 0.00 | 0.00 | 44 | 1009.2 |
| 20260509102517 | 9 | 84 | 1.6 | 6.4 | 0.00 | 0.00 | 0.00 | 43 | 1009.2 |
| 20260509101515 | 9 | 80 | 4.8 | 8.0 | 0.00 | 0.00 | 0.00 | 44 | 1009.1 |
| 20260509100537 | 9 | 96 | 3.2 | 4.8 | 0.00 | 0.00 | 0.00 | 41 | 1008.9 |
| 20260509095517 | 9 | 102 | 3.2 | 8.0 | 0.00 | 0.00 | 0.00 | 40 | 1008.9 |
| 20260509094535 | 9 | 91 | 4.8 | 6.4 | 0.00 | 0.00 | 0.00 | 42 | 1008.9 |
| 20260509093537 | 9 | 87 | 4.8 | 9.7 | 0.00 | 0.00 | 0.00 | 47 | 1009.1 |
| 20260509092517 | 9 | 89 | 6.4 | 8.0 | 0.00 | 0.00 | 0.00 | 49 | 1009.1 |
| 20260509091517 | 9 | 84 | 3.2 | 6.4 | 0.00 | 0.00 | 0.00 | 47 | 1009.3 |
| 20260509090517 | 9 | 94 | 4.8 | 8.0 | 0.00 | 0.00 | 0.00 | 49 | 1009.5 |
| 20260509085517 | 9 | 87 | 1.6 | 8.0 | 0.00 | 0.00 | 0.00 | 50 | 1009.4 |
| 20260509084537 | 9 | 83 | 4.8 | 8.0 | 0.00 | 0.00 | 0.00 | 48 | 1009.4 |
| 20260509083517 | 9 | 81 | 6.4 | 8.0 | 0.00 | 0.00 | 0.00 | 47 | 1009.5 |
| 20260509082517 | 9 | 84 | 4.8 | 6.4 | 0.00 | 0.00 | 0.00 | 49 | 1009.5 |
| 20260509081537 | 9 | 87 | 3.2 | 4.8 | 0.00 | 0.00 | 0.00 | 54 | 1009.7 |
| 20260509080517 | 9 | 89 | 4.8 | 6.4 | 0.00 | 0.00 | 0.00 | 57 | 1009.7 |
| 20260509075516 | 9 | 92 | 3.2 | 6.4 | 0.00 | 0.00 | 0.00 | 61 | 1009.9 |
| 20260509074517 | 10 | 89 | 3.2 | 6.4 | 0.00 | 0.00 | 0.00 | 64 | 1009.9 |
| 20260509073517 | 10 | 92 | 4.8 | 4.8 | 0.00 | 0.00 | 0.00 | 64 | 1009.8 |
| 20260509072517 | 10 | 91 | 3.2 | 6.4 | 0.00 | 0.00 | 0.00 | 63 | 1009.7 |
| 20260509071517 | 10 | 84 | 1.6 | 6.4 | 0.00 | 0.00 | 0.00 | 66 | 1009.6 |
| 20260509070516 | 10 | 87 | 3.2 | 6.4 | 0.00 | 0.00 | 0.00 | 68 | 1009.6 |
| 20260509065517 | 10 | 73 | 0.0 | 3.2 | 0.00 | 0.00 | 0.00 | 70 | 1009.6 |
| 20260509064517 | 11 | 74 | 1.6 | 4.8 | 0.00 | 0.00 | 0.00 | 72 | 1009.7 |
| 20260509063517 | 11 | 72 | 3.2 | 4.8 | 0.00 | 0.00 | 0.00 | 73 | 1009.9 |
| 20260509062537 | 11 | 72 | 1.6 | 6.4 | 0.00 | 0.00 | 0.00 | 73 | 1010.2 |
| 20260509061517 | 11 | 82 | 3.2 | 4.8 | 0.00 | 0.00 | 0.00 | 72 | 1010.3 |
| 20260509060517 | 11 | 86 | 0.0 | 3.2 | 0.00 | 0.00 | 0.00 | 73 | 1010.4 |
| 20260509055517 | 11 | 86 | 1.6 | 3.2 | 0.00 | 0.00 | 0.00 | 74 | 1010.4 |